Location: Kawakawa
(35.3830°S, 174.0670°E)
Time: 17:07:59
(UTC+12:00)

Cosmos 1934 Rocket - Pass Details

Date: 15 August 2020
Orbit: 937 x 1000 km, 83.0° (Epoch: 25 September)

Event Time Altitude Azimuth Distance (km) Brightness Sun altitude
Rises 19:51:57 0° 186° (S) 3,681 7.1 -24.9°
Reaches altitude 10° 19:54:27 10° 185° (S) 2,737 6.4 -25.4°
Maximum altitude 20:00:46 85° 96° (E) 995 3.9 -26.7°
Drops below altitude 10° 20:07:05 10° 7° (N) 2,747 6.3 -28.0°
Sets 20:09:36 0° 6° (N) 3,694 6.9 -28.5°
